星链-31978 (STARLINK-31978 )

导读 | 星芒AI

STARLINK-31978 是 SpaceX Starlink 卫星互联网项目中的一颗低轨卫星,属于第 11 批部署的 Starlink 卫星群。该卫星于 2023 年发射,运行在约 550 公里的近地轨道,旨在为全球用户提供高速互联网服务。它采用先进的相控阵天线和激光通信技术,支持高效数据传输,并具备自动避碰功能,以确保太空安全。作为 Starlink 计划的一部分,该卫星有助于扩大互联网覆盖范围,特别是在偏远和网络基础设施薄弱的地区。

基本信息
目录编号:
60016
目录名称:
STARLINK-31978
国际标识:
2024-111A
轨道中心:
EARTH
卫星名称:
星链-31978
卫星全名:
星链-31978 (STARLINK-31978 )
卫星状态:
在轨 (已飞行560 天)
发射日期:
2024-06-08 UTC
国别 :
美国 (US)
星等 :
--
轨道信息
数据来源 国际轨道数据 AOE轨道数据
星历时间 2025-12-19T23:27:51+0800
12小时前
查看轨道信息
2025-12-18T05:00:00+0800
2天前
查看轨道信息
半长轴 6853.368km 6853.361km
偏心率 0.0001062 0.0001586
轨道倾角 53.160° 53.158°
近地点辐角 79.031° 46.104°
升交点赤经 87.757° 95.975°
平近点角 281.081° 281.767°
近地点 474.503km 474.139km
远地点 475.959km 476.313km
周期 94.106分钟 94.106分钟
每日圈数 15.301949 15.301972
详细信息
固有亮度:
5
最大亮度:
1.5
卫星平台:
Starlink v2.0 mini
覆盖范围:
全球
运营商:
太空探索技术公司
运营商所在国:
美国
制造商(研发单位):
太空探索技术公司
制造商所在国:
美国
使用方式:
暂无
卫星简介
星链(Starlink)计划是由太空探索技术公司(SpaceX)提出的一个巨型低轨卫星互联网星座项目,计划在2019年至2024年间在太空搭建由约1.2万颗卫星组成的“星链”网络,其中1584颗将部署在地球上空550千米处的近地轨道,并从2020年开始工作。该卫星仍在工作。
2D轨道图
3D轨道图
轨道高度分析图
轨道倾角分析图
轨道综合分析图
查看轨道综合分析图